Location: Arthez
(43.0833°N, 0.2500°W)
Time: 04:17:26
(UTC+00:00)

Cosmos 1602 Rocket - Pass Details

Date: 23 October 2021
Orbit: 603 x 634 km, 82.5° (Epoch: 29 November)

Event Time Altitude Azimuth Distance (km) Brightness Sun altitude
Rises 19:06:09 0° 346° (NNW) 2,883 7.2 -22.7°
Reaches altitude 10° 19:08:25 10° 342° (NNW) 1,969 6.4 -23.1°
Maximum altitude 19:12:38 52° 267° (W) 759 4.3 -23.9°
Drops below altitude 10° 19:16:48 10° 191° (S) 1,943 6.1 -24.6°
Sets 19:19:02 0° 186° (S) 2,840 6.9 -25.0°
